Погода в Батурине

Украина / Черниговская область     51°20′34″N   32°53′02″E
темп.,
°C
ветер,
м/с
пор.,
м/с
влажн.,
%
обл.,
%
осадки,
мм/ч
давл.,
гПа
погр.,
м
31 июля, сб
сб3100:00+19зюз22650 0.0 101011
03:00+18зюз22680 0.0 101015
06:00+19юз33724 0.0 101053
09:00+26юз46490 0.0 1010532
12:00+29з45395 0.0 10102049
15:00+30з45337 0.0 10102622
18:00+30зсз45366 0.0 10101885
21:00+24ю11505 0.0 101011
1 августа, вс
вс100:00+22ю335483 0.0 101139
03:00+21ююз33605 0.0 101126
06:00+20ю356248 0.0 101173
09:00+27ююз474872 0.0 1011521
12:00+31ююз6734100 0.0 10102400
15:00+33ююз662765 0.0 10092986
18:00+23юз3963100 3.1 1009321
21:00+20ююз3995100 10.2 1010278
2 августа, пн
пн200:00+20ююв49907 1.7 1009159
03:00+19ююв479161 1.8 1009133
06:00+19ююз358980 0.0 100991
09:00+25ююз4672100 0.0 1008333
12:00+30ююз7948100 0.0 10071431
15:00+33ююз79376 0.0 10052237
18:00+21сз247610 2.8 1005138
21:00+19с51093100 15.4 1005212
3 августа, вт
вт300:00+17юз47920 0.0 1009149
03:00+16з48951 0.0 1009243
06:00+15зсз499741 0.0 1011327
09:00+18сз57795 0.0 1012542
12:00+23сз45587 0.0 10131325
15:00+25зсз454699 0.6 10122242
18:00+23з555577 0.0 10131546
21:00+19зюз3368100 0.1 101437
4 августа, ср
ср400:00+19з246710 0.0 1015114
03:00+18сз2464100 0.0 101691
06:00+18зсз22636 0.0 101635
09:00+21сз115328 0.0 1017318
12:00+23зсз33495 0.0 1018850
15:00+25з3543100 0.0 10172291
18:00+24ссз115484 0.0 1017189
21:00+20вюв225956 0.0 101712